ACRAWX current weather conditions

sailwx.info

Wind from 186 at 5 knots gusting 9

Air temperature 30.2° C
Dewpoint 24.9° C
Water temperature -7999.0° C

Last reported at 2020-Sep-28 14:30 UTC.
Time now 2020-Sep-28 15:17 UTC

Location: N 27°07' W 080°26'.
View on Google Maps.

See reports from other nearby stations

  
Tides and Currents Weather Stations Pressure Air Temp Water Temp Dewpoint Dewpoint Depression Visibility Wind Speed Wind Dir Waves Ship Positions
date/time (UTC)wind fromknots sea level pressurealtimeterstation pressurevisibilityair tempwater tempwave heightnotes
2020-Sep-28 14:30 186 5 gusting 9 30.2-7999.0
2020-Sep-28 14:15 180 5 gusting 7 30.1-7999.0
2020-Sep-28 13:30 172 5 gusting 8 29.3-7999.0
2020-Sep-28 13:15 166 6 gusting 9 28.9-7999.0
2020-Sep-28 13:00 163 4 gusting 7 28.6-7999.0
2020-Sep-28 12:45 157 2 gusting 5 28.0-7999.0
2020-Sep-28 12:30 166 1 gusting 2 27.2-7999.0
2020-Sep-28 12:15 141 1 gusting 2 26.2-7999.0
2020-Sep-28 11:45 048 1 gusting 1 24.4-7999.0
2020-Sep-28 11:30 098 1 gusting 1 23.8-7999.0
2020-Sep-28 11:15 158 1 gusting 2 24.5-7999.0
2020-Sep-28 11:00 131 1 gusting 2 24.4-7999.0
2020-Sep-28 10:45 115 1 gusting 2 24.2-7999.0
2020-Sep-28 10:30 134 1 gusting 1 24.2-7999.0
2020-Sep-28 10:15 116 1 gusting 2 24.3-7999.0
2020-Sep-28 10:00 047 1 gusting 2 23.9-7999.0
2020-Sep-28 09:45 042 0 gusting 1 24.0-7999.0
2020-Sep-28 09:30 129 0 gusting 0 24.1-7999.0
2020-Sep-28 09:15 152 24.6-7999.0
2020-Sep-28 09:00 144 0 gusting 2 24.8-7999.0
2020-Sep-28 08:45 125 2 gusting 2 24.9-7999.0
2020-Sep-28 08:30 134 2 gusting 2 25.0-7999.0
2020-Sep-28 08:15 111 2 gusting 3 24.9-7999.0
2020-Sep-28 08:00 098 3 gusting 4 24.9-7999.0
2020-Sep-28 07:45 097 3 gusting 4 24.9-7999.0
2020-Sep-28 07:30 068 2 gusting 3 24.6-7999.0
2020-Sep-28 07:15 033 1 gusting 2 24.4-7999.0
2020-Sep-28 07:00 131 0 gusting 0 24.6-7999.0
2020-Sep-28 06:45 315 0 gusting 0 24.6-7999.0
2020-Sep-28 06:30 346 0 gusting 0 24.5-7999.0
2020-Sep-28 06:15 239 1 gusting 2 24.6-7999.0
2020-Sep-28 06:00 094 1 gusting 2 24.7-7999.0
2020-Sep-28 05:45 110 0 gusting 1 25.2-7999.0
2020-Sep-28 05:30 115 2 gusting 3 25.4-7999.0
2020-Sep-28 05:15 109 3 gusting 5 25.5-7999.0
2020-Sep-28 05:00 103 4 gusting 4 25.5-7999.0
2020-Sep-28 04:45 091 3 gusting 4 25.4-7999.0
2020-Sep-28 04:30 088 3 gusting 4 25.4-7999.0
2020-Sep-28 04:15 088 3 gusting 5 25.2-7999.0
2020-Sep-28 03:45 056 2 gusting 3 25.0-7999.0
2020-Sep-28 03:30 220 2 gusting 3 25.1-7999.0
2020-Sep-28 03:15 307 2 gusting 4 25.3-7999.0
2020-Sep-28 03:00 108 1 gusting 2 25.3-7999.0
2020-Sep-28 02:45 078 2 gusting 3 25.3-7999.0
2020-Sep-28 02:30 078 3 gusting 3 25.1-7999.0
2020-Sep-28 02:15 079 2 gusting 3 25.1-7999.0
2020-Sep-28 02:00 082 1 gusting 2 25.1-7999.0
2020-Sep-28 01:45 064 1 gusting 2 24.9-7999.0
2020-Sep-28 01:30 157 0 gusting 1 25.1-7999.0
2020-Sep-28 01:15 164 0 gusting 1 25.4-7999.0
2020-Sep-28 01:00 081 1 gusting 2 25.6-7999.0
2020-Sep-28 00:30 087 3 gusting 3 25.6-7999.0
2020-Sep-28 00:15 087 3 gusting 4 25.8-7999.0
2020-Sep-28 00:00 104 3 gusting 4 26.1-7999.0
2020-Sep-27 23:45 109 3 gusting 4 26.1-7999.0
2020-Sep-27 23:30 104 4 gusting 4 26.4-7999.0
2020-Sep-27 23:15 100 4 gusting 5 26.6-7999.0
2020-Sep-27 23:00 094 3 gusting 6 26.9-7999.0
2020-Sep-27 22:45 094 4 gusting 6 27.4-7999.0
2020-Sep-27 22:30 089 4 gusting 7 27.8-7999.0
2020-Sep-27 22:15 085 6 gusting 8 28.4-7999.0
2020-Sep-27 22:00 080 5 gusting 8 28.6-7999.0
2020-Sep-27 21:45 082 5 gusting 8 28.8-7999.0
2020-Sep-27 21:30 074 6 gusting 8 28.9-7999.0
2020-Sep-27 21:15 079 5 gusting 9 30.1-7999.0
2020-Sep-27 21:00 090 6 gusting 9 30.9-7999.0
2020-Sep-27 20:45 080 8 gusting 12 30.8-7999.0
2020-Sep-27 20:30 102 7 gusting 9 31.1-7999.0
2020-Sep-27 20:15 096 8 gusting 11 31.2-7999.0
2020-Sep-27 20:00 086 8 gusting 11 31.3-7999.0
2020-Sep-27 19:45 073 8 gusting 12 31.2-7999.0
2020-Sep-27 19:30 074 8 gusting 11 31.7-7999.0
2020-Sep-27 19:15 077 7 gusting 10 31.8-7999.0
2020-Sep-27 19:00 069 8 gusting 12 31.3-7999.0
2020-Sep-27 18:45 074 7 gusting 10 31.5-7999.0
2020-Sep-27 18:30 064 7 gusting 10 31.6-7999.0
2020-Sep-27 18:15 065 7 gusting 10 31.6-7999.0
2020-Sep-27 18:00 074 6 gusting 10 31.9-7999.0
2020-Sep-27 17:45 090 6 gusting 9 31.4-7999.0
2020-Sep-27 17:30 071 7 gusting 11 31.0-7999.0
2020-Sep-27 17:15 063 7 gusting 11 31.0-7999.0
2020-Sep-27 17:00 070 7 gusting 9 31.6-7999.0
2020-Sep-27 16:45 080 7 gusting 10 30.9-7999.0
2020-Sep-27 16:30 069 7 gusting 12 30.4-7999.0
2020-Sep-27 16:15 081 6 gusting 9 30.9-7999.0
2020-Sep-27 16:00 083 5 gusting 13 31.9-7999.0
2020-Sep-27 15:45 082 5 gusting 9 31.5-7999.0
2020-Sep-27 15:30 073 5 gusting 8 30.6-7999.0
2020-Sep-27 15:15 066 4 gusting 8 29.8-7999.0
2020-Sep-27 15:00 081 4 gusting 8 29.8-7999.0
2020-Sep-27 14:45 057 4 gusting 6 30.1-7999.0
2020-Sep-27 14:30 049 3 gusting 6 29.9-7999.0
2020-Sep-27 14:15 088 3 gusting 6 30.2-7999.0
2020-Sep-27 13:45 074 5 gusting 7 29.1-7999.0
2020-Sep-27 13:30 062 4 gusting 7 28.5-7999.0
2020-Sep-27 13:15 054 4 gusting 6 27.9-7999.0
2020-Sep-27 13:00 056 3 gusting 4 27.0-7999.0
2020-Sep-27 12:45 050 3 gusting 5 26.0-7999.0
2020-Sep-27 12:30 040 3 gusting 4 25.4-7999.0
2020-Sep-27 12:15 042 3 gusting 4 25.0-7999.0
2020-Sep-27 11:45 035 1 gusting 2 24.1-7999.0
2020-Sep-27 11:30 020 1 gusting 3 23.7-7999.0
2020-Sep-27 11:15 033 3 gusting 3 23.5-7999.0
2020-Sep-27 11:00 041 2 gusting 3 23.5-7999.0
2020-Sep-27 10:45 060 2 gusting 3 23.5-7999.0
2020-Sep-27 10:30 058 2 gusting 3 23.5-7999.0
2020-Sep-27 10:15 044 3 gusting 4 23.5-7999.0
2020-Sep-27 10:00 036 2 gusting 4 23.5-7999.0
2020-Sep-27 09:45 043 2 gusting 3 23.6-7999.0
2020-Sep-27 09:30 027 2 gusting 4 23.7-7999.0
2020-Sep-27 09:15 028 2 gusting 3 23.6-7999.0
2020-Sep-27 09:00 020 2 gusting 3 23.5-7999.0
2020-Sep-27 08:45 235 2 gusting 3 23.3-7999.0
2020-Sep-27 08:30 320 2 gusting 3 23.3-7999.0
2020-Sep-27 08:15 300 2 gusting 3 23.4-7999.0
2020-Sep-27 08:00 304 2 gusting 2 23.7-7999.0
2020-Sep-27 07:45 294 2 gusting 2 23.6-7999.0
2020-Sep-27 07:30 280 1 gusting 2 23.6-7999.0
2020-Sep-27 07:15 294 1 gusting 2 23.7-7999.0
2020-Sep-27 07:00 306 1 gusting 1 23.8-7999.0
2020-Sep-27 06:45 310 0 gusting 1 23.8-7999.0
2020-Sep-27 06:30 271 0 gusting 0 24.2-7999.0
2020-Sep-27 06:15 289 0 gusting 1 24.1-7999.0
2020-Sep-27 06:00 054 1 gusting 1 24.3-7999.0
2020-Sep-27 05:45 013 1 gusting 1 24.6-7999.0
2020-Sep-27 05:30 056 1 gusting 1 24.7-7999.0
2020-Sep-27 05:15 054 0 gusting 1 24.7-7999.0
2020-Sep-27 05:00 061 1 gusting 1 24.7-7999.0
2020-Sep-27 04:45 311 24.7-7999.0
2020-Sep-27 04:30 314 24.8-7999.0
2020-Sep-27 04:15 312 0 gusting 1 24.8-7999.0
2020-Sep-27 03:45 286 1 gusting 2 25.2-7999.0
2020-Sep-27 03:30 275 2 gusting 2 25.4-7999.0
2020-Sep-27 03:15 280 2 gusting 2 25.4-7999.0
2020-Sep-27 03:00 192 0 gusting 1 25.7-7999.0
2020-Sep-27 02:45 183 1 gusting 2 26.0-7999.0
2020-Sep-27 02:30 133 2 gusting 3 26.1-7999.0
2020-Sep-27 02:15 126 2 gusting 3 26.2-7999.0
2020-Sep-27 02:00 138 2 gusting 3 26.4-7999.0
2020-Sep-27 01:45 152 2 gusting 3 26.3-7999.0
2020-Sep-27 01:30 144 2 gusting 3 26.3-7999.0
2020-Sep-27 01:15 128 2 gusting 3 26.3-7999.0
2020-Sep-27 01:00 123 2 gusting 3 26.4-7999.0
2020-Sep-27 00:30 099 4 gusting 5 26.6-7999.0
2020-Sep-27 00:15 102 4 gusting 6 26.7-7999.0
2020-Sep-27 00:00 116 4 gusting 6 27.0-7999.0
2020-Sep-26 23:45 097 5 gusting 7 27.1-7999.0
2020-Sep-26 23:30 089 4 gusting 5 27.3-7999.0
2020-Sep-26 23:15 083 5 gusting 8 27.8-7999.0
2020-Sep-26 23:00 083 6 gusting 8 28.2-7999.0
2020-Sep-26 22:45 085 6 gusting 9 28.7-7999.0
2020-Sep-26 22:30 071 7 gusting 10 29.3-7999.0
2020-Sep-26 22:00 059 7 gusting 10 30.3-7999.0
2020-Sep-26 21:45 059 8 gusting 12 30.4-7999.0
2020-Sep-26 21:30 050 7 gusting 11 31.6-7999.0
2020-Sep-26 21:15 024 4 gusting 7 32.4-7999.0
2020-Sep-26 21:00 191 2 gusting 4 32.9-7999.0
2020-Sep-26 20:45 037 3 gusting 5 32.7-7999.0
2020-Sep-26 20:30 202 4 gusting 7 32.8-7999.0
2020-Sep-26 20:15 233 5 gusting 8 32.8-7999.0
2020-Sep-26 20:00 279 6 gusting 8 32.6-7999.0
2020-Sep-26 19:45 307 7 gusting 11 32.4-7999.0
2020-Sep-26 19:30 300 5 gusting 10 32.1-7999.0
2020-Sep-26 19:15 305 7 gusting 10 31.6-7999.0
2020-Sep-26 19:00 319 6 gusting 9 31.7-7999.0
2020-Sep-26 18:45 308 6 gusting 12 31.8-7999.0
2020-Sep-26 18:30 301 5 gusting 11 31.8-7999.0
2020-Sep-26 18:15 301 4 gusting 7 31.5-7999.0
2020-Sep-26 18:00 295 5 gusting 8 31.5-7999.0
2020-Sep-26 17:45 280 5 gusting 8 31.1-7999.0
2020-Sep-26 17:30 301 6 gusting 9 31.5-7999.0
2020-Sep-26 17:15 286 5 gusting 9 31.7-7999.0
2020-Sep-26 17:00 265 5 gusting 10 31.5-7999.0
2020-Sep-26 16:45 256 6 gusting 10 30.3-7999.0
2020-Sep-26 16:30 275 6 gusting 10 30.5-7999.0
2020-Sep-26 16:15 287 5 gusting 8 29.2-7999.0
2020-Sep-26 16:00 281 5 gusting 10 30.7-7999.0
2020-Sep-26 15:45 242 5 gusting 9 31.2-7999.0
2020-Sep-26 15:30 239 5 gusting 8 30.6-7999.0
2020-Sep-26 15:15 258 6 gusting 9 30.3-7999.0
2020-Sep-26 15:00 253 5 gusting 9 29.8-7999.0